Starlink 4469

operational
NORAD ID: 53657 Int'l Des: 2022-105 Owner: SPXS Country: US Constellation: starlink
LEOCIRCULARRETROGRADE

关于 Starlink 4469

正在加载描述...

实时位置

正在加载3D地球...

即将过境

高度历史

Altitude vs Time

uPlot chart will show altitude changes over time

两行轨道根数

1 53657U 22105K 25353.83700733 .00000493 00000-0 36381-5 0 9997
2 53657 97.6438 245.9956 0001529 111.2106 248.9324 15.79055093182090
Epoch: Dec 19, 2025 • Age: 6 hours

当前状态

高度 351.6 km
速度 7.70 km/s
星下点 -46.38°S, 54.82°W
发射日期 Aug 31, 2022
运行时间 3.3 years
类型 internet

技术详情

分类 Payload
质量 300.00 kg
干质量 290.00 kg
总质量 300.00 kg
长度 0.20 m
直径 2.80 m
跨度 9.00 m
形状 Box + pan
制造商 SPXS
平台类型 Starlink
阶段状态 In Orbit
所有者/国家 SPXS/US

大型星座

Loading constellations...